Location: Carnetin
(48.9010°N, 2.7059°E)
Time: 03:48:49
(UTC+00:00)

USA 229 - Pass Details

Date: 29 May 2022
Orbit: 938 x 1274 km, 63.4° (Epoch: 24 May)

Event Time Altitude Azimuth Distance (km) Brightness Sun altitude
Rises 00:36:55 0° 315° (NW) 3,988 7.2 -18.6°
Reaches altitude 10° 00:39:43 10° 308° (NW) 3,073 6.4 -18.5°
Maximum altitude 00:46:27 39° 243° (WSW) 1,737 4.5 -18.3°
Enters shadow 00:49:50 27° 197° (SSW) 2,186 4.7 -18.1°
